Starlink 31929

operational
NORAD ID: 59836 Int'l Des: 2024-097 Owner: SPXS Country: US Constellation: starlink
LEOCIRCULAR

About Starlink 31929

Description loading...

Live Position

Loading 3D Globe...

Upcoming Passes

Altitude History

Altitude vs Time

uPlot chart will show altitude changes over time

Two-Line Element Set

1 59836U 24097B 25304.22696142 -.00001772 00000-0 -54830-4 0 9992
2 59836 43.0097 285.8069 0002280 278.0653 81.9940 15.27589361 82117
Epoch: Oct 31, 2025 • Age: 54 hours

Current Status

Altitude 485.4 km
Velocity 7.63 km/s
Sub-Earth Point 35.07°N, 113.91°E
Launch Date May 23, 2024
Age 1.4 years
Type internet

Technical Details

Classification Payload
Mass 730.00 kg
Dry Mass 700.00 kg
Total Mass 730.00 kg
Length 0.30 m
Diameter 4.10 m
Span 29.00 m
Shape Box + pan
Manufacturer SPXS
Bus Type Starlink V2M
Phase Status In Orbit
Owner/State SPXS/US

Large Constellations

Loading constellations...